This demonstration page uses our WeatherBlox Daily Observations layout. Learn more.

Left ArrowRight Arrow

Hourly Observations for December 5, 2016

Temp ( °F °C ) Dew Point ( °F °C ) Humidity (%) Winds ( mph kmh ) Pressure ( in mb ) Visibility ( mi km ) Precip ( " mm )
12:06 am 00:06 Cloudy with Light Snow 23 -5 19 -7 86 86 NW 14 22 29.88 1012 3 4 0.00 0.00
12:13 am 00:13 Cloudy with Light Snow 23 -5 19 -7.2 85 85 NW 15 24 29.88 1012 3 5 0.00 0.03
12:53 am 00:53 Cloudy with Light Snow 23 -5 18 -7.8 81 81 NW 12 19 29.81 1010 9 14 0.00 0.03
1:53 am 01:53 Cloudy 22 -5.6 15 -9.4 75 75 NW 15 24 29.84 1011 10 16 0.00 0.03
2:53 am 02:53 Cloudy 21 -6 14 -10 74 74 NW 17 28 29.94 1014 10 16 0.00 0.00
3:53 am 03:53 Cloudy 19 -7.2 12 -11.1 74 74 NW 21 33 29.90 1013 10 16 0.00 0.00
4:39 am 04:39 Cloudy 18 -7.8 12 -11.1 77 77 NW 21 33 30.03 1017 10 16 0.00 0.00
4:53 am 04:53 Cloudy 18 -7.8 12 -11.1 77 77 NW 22 35 29.95 1014 10 16 0.00 0.00
5:53 am 05:53 Cloudy 15 -9.4 10 -12.2 80 80 NW 21 33 30.00 1016 10 16 0.00 0.00
6:53 am 06:53 Cloudy 12 -11.1 6 -14.4 77 77 WNW 16 26 30.05 1018 10 16 0.00 0.03
7:53 am 07:53 Cloudy 10 -12.2 4 -15.6 76 76 NW 13 20 30.11 1020 10 16 0.00 0.00
8:09 am 08:09 Cloudy with Light Snow 10 -12.2 4 -15.6 76 76 NW 15 24 30.24 1024 2 3 0.00 0.03
8:19 am 08:19 Cloudy with Light Snow 10 -12.2 2 -16.7 69 69 NW 14 22 30.24 1024 6 10 0.00 0.03
8:36 am 08:36 Cloudy with Light Snow 9 -12.8 3 -16.1 77 77 WNW 17 28 30.27 1025 3 4 0.00 0.03
8:38 am 08:38 Cloudy with Light Snow 9 -13 3 -16 78 78 WNW 17 28 30.27 1025 3 5 0.00 0.00
8:53 am 08:53 Mostly Cloudy 8 -13.3 1 -17.2 73 73 WNW 21 33 30.15 1021 10 16 0.00 0.03
9:05 am 09:05 Partly Cloudy 8 -13.3 1 -17.2 73 73 NW 16 26 30.30 1026 10 16 0.00 0.00
10:02 am 10:02 Mostly Cloudy 9 -13 1 -17 72 72 NW 22 35 30.30 1026 10 16 0.00 0.00
10:53 am 10:53 Cloudy 9 -12.8 1 -17.2 70 70 WNW 17 28 30.20 1023 8 13 0.00 0.03
11:33 am 11:33 Mostly Cloudy 9 -12.8 1 -17.2 70 70 WNW 16 26 30.30 1026 10 16 0.00 0.00
11:41 am 11:41 Mostly Cloudy 9 -12.8 1 -17.2 70 70 WNW 16 26 30.30 1026 10 16 0.00 0.00
11:53 am 11:53 Mostly Cloudy 9 -12.8 1 -17.2 70 70 WNW 17 28 30.21 1023 10 16 0.00 0.00
12:31 pm 12:31 Partly Cloudy 9 -12.8 0 -17.8 66 66 NW 16 26 30.33 1027 10 16 0.00 0.00
12:53 pm 12:53 Partly Cloudy 10 -12.2 1 -17.2 67 67 WNW 17 28 30.21 1023 10 16 0.00 0.00
1:44 pm 13:44 Mostly Cloudy 10 -12 1 -17 67 67 WNW 13 20 30.33 1027 10 16 0.00 0.00
1:51 pm 13:51 Partly Cloudy 10 -12 1 -17 67 67 WNW 14 22 30.33 1027 10 16 0.00 0.00
1:53 pm 13:53 Partly Cloudy 10 -12.2 1 -17.2 67 67 WNW 14 22 30.22 1023 10 16 0.00 0.00
2:53 pm 14:53 Cloudy 11 -11.7 1 -17.2 64 64 WNW 16 26 30.23 1024 10 16 0.00 0.00
3:53 pm 15:53 Partly Cloudy 8 -13.3 0 -17.8 69 69 NW 14 22 30.26 1025 10 16 0.00 0.00
4:53 pm 16:53 Cloudy 8 -13.3 0 -17.8 69 69 WNW 13 20 30.27 1025 10 16 0.00 0.00
5:53 pm 17:53 Mostly Cloudy 7 -13.9 -1 -18.3 70 70 NW 12 19 30.29 1026 10 16 0.00 0.00
6:53 pm 18:53 Mostly Cloudy 6 -14.4 -1 -18.3 73 73 WNW 10 17 30.30 1026 10 16 0.00 0.00
7:53 pm 19:53 Mostly Clear 6 -14.4 -1 -18.3 73 73 WNW 8 13 30.31 1026 10 16 0.00 0.00
8:53 pm 20:53 Mostly Cloudy 6 -14.4 0 -17.8 76 76 WNW 12 19 30.32 1027 10 16 0.00 0.00
9:53 pm 21:53 Partly Cloudy 7 -14 0 -18 72 72 WNW 9 15 30.42 1030 10 16 0.00 0.00
10:40 pm 22:40 Mostly Cloudy 7 -14 0 -18 72 72 WNW 13 20 30.45 1031 10 16 0.00 0.00
10:53 pm 22:53 Mostly Cloudy 6 -14.4 -1 -18.3 73 73 WNW 12 19 30.33 1027 10 16 0.00 0.00
11:53 pm 23:53 Cloudy 5 -15 -2 -18.9 72 72 NW 10 17 30.35 1028 10 16 0.00 0.00

Powered by AerisWeather